Tracking 30923 objects as of 1-Jul-2025
HD Live streaming from Space Station
objects crossing your sky now

ASTRA 1D

Track ASTRA 1D now!
ASTRA 1D is classified as:


NORAD ID: 23331
Int'l Code: 1994-070A
Perigee: 36,142.9 km
Apogee: 36,195.2 km
Inclination: 11.8 °
Period: 1,455.3 minutes
Semi major axis: 42540 km
RCS: 75.2376 m2 (large)
Launch date: November 1, 1994
Source: Luxembourg (LUXE)
Launch site: FRENCH GUIANA (FRGUI)

Primarily backup for Astra 1B and 1C; 18 Ku-band transponders; continental Europe.
Your satellite tracking list
Your tracking list is empty




NASA's NSSDC Master Catalog

Two Line Element Set (TLE):
1 23331U 94070A   25181.85827848  .00000037  00000-0  00000-0 0  9999
2 23331  11.7647  31.2291 0006148 104.1171 166.2496  0.98947746112464
Source of the keplerian elements: AFSPC